Location: Unspecified
(43.4354°N, 0.0000°E)
Time: 01:12:58
(UTC+00:00)

Tiros 1 despin weight - Pass Details

Date: 29 June 2019
Orbit: 594 x 642 km, 48.2° (Epoch: 17 August)

Event Time Altitude Azimuth Distance (km) Brightness Sun altitude
Rises 23:58:02 0° 286° (WNW) 2,853 ? -23.3°
Reaches altitude 10° 00:00:25 10° 292° (WNW) 1,943 ? -23.3°
Maximum altitude 00:04:43 47° 7° (N) 795 ? -23.3°
Drops below altitude 10° 00:08:59 10° 82° (E) 1,927 ? -23.3°
Sets 00:11:20 0° 88° (E) 2,826 ? -23.3°
